Location: Newark
(48.6461°N, 4.3644°W)
Time: 15:20:57
(UTC+00:00)

Transit 4A - Pass Details

Date: 26 January 2020
Orbit: 872 x 973 km, 66.8° (Epoch: 26 February)

Event Time Altitude Azimuth Distance (km) Brightness Sun altitude
Rises 13:24:16 0° 325° (NW) 3,480 10.5 21.5°
Reaches altitude 10° 13:27:09 10° 337° (NNW) 2,533 9.8 21.4°
Maximum altitude 13:32:06 28° 35° (NE) 1,596 8.8 21.2°
Drops below altitude 10° 13:37:03 10° 94° (E) 2,530 10.1 21.0°
Sets 13:39:55 0° 106° (ESE) 3,474 10.9 20.8°
